Retour au catalogue

STARLINK-33977

ActifCommunicationsVLEO
NORAD 64344·PAYLOAD·🇺🇸 United States

Lancé Jun 13, 2025 depuis Vandenberg Space Force Base

Loading…

Prochains Passages (prochaines 24 heures)

TLE

FraisSource: CelesTrak SupGP

Époque: Sep 14, 2026, 21:15 UTC

1 64344C 25126A   26257.88590278  .00072819  00000+0  25339-2 0  2573
2 64344  70.0005 275.6902 0003150 268.2843 149.8796 15.29532563    14

Suivez STARLINK-33977 en temps réel avec AllMySat

Download on the App Store